Tracking 27405 objects as of 2-Jun-2023
HD Live streaming from Space Station
objects crossing your sky now

COSMOS 1275 DEB

Track COSMOS 1275 DEB now!
10-day predictions


NORAD ID: 18275
Int'l Code: 1981-053LT
Perigee: 915.0 km
Apogee: 1,125.9 km
Inclination: 82.9 °
Period: 105.4 minutes
Semi major axis: 7391 km
RCS: 0.0076 m2 (small)
Launch date: June 4, 1981
Source: Commonwealth of Independent States (former USSR) (CIS)
Launch site: PLESETSK MISSILE AND SPACE COMPLEX (PKMTR)

Note: This is SATELLITE DEBRIS
Your satellite tracking list
Your tracking list is empty




NASA's NSSDC Master Catalog

Two Line Element Set (TLE):
1 18275U 81053LQ  23151.84014970  .00000432  00000-0  47032-3 0  9993
2 18275  82.9258 279.6033 0142648 133.7441  23.3088 13.66175719904369
Source of the keplerian elements: AFSPC